CW0214 Weather Reports


Display with metric or nautical units.
time (UTC)temp
F
wind
direction
speed
MPH
gust
MPH
rain 1hr
in
rain 24hr
in
rain mn
in
humidity
%
barometer
mb
20260904054405 75 5 0.0 0.0 0.00 0.00 0.00 55 1019.2
20260904053904 75 5 0.0 1.0 0.00 0.00 0.00 53 1019.1
20260904053405 76 5 0.0 1.0 0.00 0.00 0.00 53 1019.0
20260904052905 76 11 0.0 1.0 0.00 0.00 0.00 53 1018.8
20260904052404 76 263 0.0 1.0 0.00 0.00 0.00 53 1018.8
20260904051905 76 265 0.0 1.0 0.00 0.00 0.00 54 1018.8
20260904051404 76 248 0.0 1.0 0.00 0.00 0.00 54 1018.7
20260904050404 75 251 2.0 5.0 0.00 0.00 0.00 54 1018.7
20260904045905 75 245 0.0 1.0 0.00 0.00 0.00 54 1018.9
20260904045405 75 309 0.0 0.0 0.00 0.00 0.00 54 1019.0
20260904044905 75 247 0.0 3.0 0.00 0.00 0.00 54 1019.0
20260904043905 75 240 1.0 8.0 0.00 0.00 0.00 53 1019.0
20260904042905 76 254 0.0 5.0 0.00 0.00 0.00 53 1019.2
20260904042405 76 236 4.0 6.0 0.00 0.00 0.00 55 1019.0
20260904041904 76 37 0.0 0.0 0.00 0.00 0.00 55 1019.5
20260904041405 77 37 0.0 0.0 0.00 0.00 0.00 55 1019.3
20260904040905 76 37 0.0 0.0 0.00 0.00 0.00 56 1019.4
20260904040404 76 37 0.0 1.0 0.00 0.00 0.00 56 1019.4
20260904035905 76 37 0.0 0.0 0.00 0.00 0.00 56 1019.5
20260904034905 76 37 0.0 2.0 0.00 0.00 0.00 56 1019.9
20260904034404 75 249 0.0 0.0 0.00 0.00 0.00 55 1019.8
20260904033905 75 249 0.0 1.0 0.00 0.00 0.00 56 1019.7
20260904032905 74 217 0.0 0.0 0.00 0.00 0.00 56 1019.7
20260904032405 74 217 0.0 0.0 0.00 0.00 0.00 55 1019.8
20260904031906 75 217 0.0 2.0 0.00 0.00 0.00 54 1019.8
20260904031404 76 61 5.0 12.0 0.00 0.00 0.00 54 1020.1
20260904030405 77 329 2.0 7.0 0.00 0.00 0.00 50 1019.0
20260904024905 78 289 0.0 3.0 0.00 0.00 0.00 47 1018.7
20260904024404 78 301 1.0 5.0 0.00 0.00 0.00 47 1018.7
20260904023904 78 275 1.0 5.0 0.00 0.00 0.00 48 1018.7
20260904023404 78 287 1.0 6.0 0.00 0.00 0.00 48 1018.7
20260904022905 78 346 1.0 3.0 0.00 0.00 0.00 48 1018.8
20260904021905 78 346 0.0 0.0 0.00 0.00 0.00 48 1018.9
20260904021404 78 346 0.0 0.0 0.00 0.00 0.00 47 1018.9
20260904020905 79 346 0.0 5.0 0.00 0.00 0.00 47 1019.0
20260904020405 79 346 1.0 5.0 0.00 0.00 0.00 46 1019.1
20260904015405 79 346 0.0 0.0 0.00 0.00 0.00 45 1019.3
20260904014905 79 346 0.0 0.0 0.00 0.00 0.00 45 1019.3
20260904014405 79 346 0.0 0.0 0.00 0.00 0.00 44 1019.3
20260904013905 79 346 0.0 0.0 0.00 0.00 0.00 44 1019.3
20260904013405 79 346 0.0 1.0 0.00 0.00 0.00 43 1019.4
20260904012905 79 327 1.0 6.0 0.00 0.00 0.00 42 1019.3
20260904012405 80 304 4.0 6.0 0.00 0.00 0.00 43 1019.2
20260904011905 80 296 0.0 5.0 0.00 0.00 0.00 43 1019.2
20260904010904 80 17 0.0 1.0 0.00 0.00 0.00 45 1019.3
20260904010405 81 19 0.0 0.0 0.00 0.00 0.00 48 1019.5
20260904005905 81 19 0.0 0.0 0.00 0.00 0.00 51 1019.5
20260904005405 81 19 0.0 0.0 0.00 0.00 0.00 52 1019.4
20260904004905 81 19 0.0 0.0 0.00 0.00 0.00 53 1019.4
20260904004405 82 19 0.0 0.0 0.00 0.00 0.00 54 1019.4
20260904003905 82 19 0.0 0.0 0.00 0.00 0.00 54 1019.4
20260904003405 82 19 0.0 0.0 0.00 0.00 0.00 54 1019.4
20260904002905 82 19 0.0 0.0 0.00 0.00 0.00 54 1019.4
20260904002404 82 19 0.0 0.0 0.00 0.00 0.00 53 1019.4
20260904001904 82 19 0.0 0.0 0.00 0.00 0.00 53 1019.4
20260904001404 82 19 0.0 0.0 0.00 0.00 0.00 52 1019.5
20260904000904 82 19 0.0 0.0 0.00 0.00 0.00 52 1019.6
20260904000404 82 19 0.0 0.0 0.00 0.00 0.00 51 1019.6
20260903235905 82 19 0.0 2.0 0.00 0.00 0.00 50 1019.7
20260903235405 82 19 0.0 0.0 0.00 0.00 0.00 49 1019.7
20260903234904 82 19 0.0 3.0 0.00 0.00 0.00 48 1019.7
20260903234405 82 19 0.0 0.0 0.00 0.00 0.00 46 1019.7
20260903233905 82 19 0.0 0.0 0.00 0.00 0.00 44 1019.7
20260903233405 82 19 0.0 0.0 0.00 0.00 0.00 44 1019.7
20260903232904 81 19 0.0 0.0 0.00 0.00 0.00 43 1019.6
20260903232404 82 19 0.0 0.0 0.00 0.00 0.00 41 1019.5
20260903231905 82 19 0.0 3.0 0.00 0.00 0.00 40 1019.6
20260903230905 86 38 6.0 10.0 0.00 0.00 0.00 36 1019.5
20260903230404 87 186 0.0 0.0 0.00 0.00 0.00 34 1019.2
20260903225405 88 186 0.0 0.0 0.00 0.00 0.00 34 1019.1
20260903224405 89 186 0.0 0.0 0.00 0.00 0.00 34 1019.1
20260903223905 89 186 0.0 0.0 0.00 0.00 0.00 32 1019.0
20260903223405 90 186 0.0 0.0 0.00 0.00 0.00 32 1019.0
20260903222905 90 186 0.0 0.0 0.00 0.00 0.00 32 1019.0
20260903222404 91 186 0.0 0.0 0.00 0.00 0.00 30 1019.0
20260903221905 91 186 0.0 0.0 0.00 0.00 0.00 29 1019.0
20260903221404 91 186 0.0 0.0 0.00 0.00 0.00 29 1019.0
20260903220904 91 186 0.0 0.0 0.00 0.00 0.00 29 1019.0
20260903220404 91 186 2.0 3.0 0.00 0.00 0.00 29 1019.0
20260903215904 92 186 1.0 2.0 0.00 0.00 0.00 29 1019.0
20260903215404 92 186 0.0 0.0 0.00 0.00 0.00 28 1019.0
20260903214904 92 186 0.0 0.0 0.00 0.00 0.00 28 1018.9
20260903214404 93 186 0.0 1.0 0.00 0.00 0.00 28 1018.9
20260903213405 93 186 0.0 0.0 0.00 0.00 0.00 28 1019.0
20260903212904 94 186 0.0 0.0 0.00 0.00 0.00 27 1019.0
20260903212407 94 186 0.0 1.0 0.00 0.00 0.00 26 1019.1
20260903211904 94 186 0.0 0.0 0.00 0.00 0.00 26 1019.0
20260903211405 94 186 1.0 3.0 0.00 0.00 0.00 26 1019.2
20260903210906 94 186 2.0 3.0 0.00 0.00 0.00 26 1019.1
20260903210405 94 186 1.0 3.0 0.00 0.00 0.00 26 1019.0
20260903205404 94 186 1.0 5.0 0.00 0.00 0.00 25 1019.0
20260903204904 94 186 3.0 6.0 0.00 0.00 0.00 26 1019.0
20260903203904 94 186 1.0 2.0 0.00 0.00 0.00 27 1019.0
20260903203405 94 186 0.0 3.0 0.00 0.00 0.00 27 1019.0
20260903202904 95 186 2.0 5.0 0.00 0.00 0.00 27 1018.9
20260903202405 96 186 2.0 3.0 0.00 0.00 0.00 26 1018.9
20260903201905 96 186 0.0 0.0 0.00 0.00 0.00 26 1018.8
20260903201404 96 186 0.0 0.0 0.00 0.00 0.00 25 1018.7
20260903200905 96 186 0.0 0.0 0.00 0.00 0.00 25 1018.7
20260903195904 97 186 2.0 6.0 0.00 0.00 0.00 24 1018.5
20260903195404 97 212 1.0 6.0 0.00 0.00 0.00 24 1018.4
20260903194904 97 269 2.0 5.0 0.00 0.00 0.00 24 1018.4
20260903193904 97 241 0.0 3.0 0.00 0.00 0.00 24 1018.2
20260903193405 98 241 2.0 5.0 0.00 0.00 0.00 24 1018.2
20260903192905 98 241 2.0 3.0 0.00 0.00 0.00 24 1018.1
20260903192405 98 241 3.0 5.0 0.00 0.00 0.00 23 1018.2
20260903191405 99 238 3.0 5.0 0.00 0.00 0.00 23 1018.1
20260903190906 99 224 2.0 5.0 0.00 0.00 0.00 22 1018.1
20260903190405 99 224 1.0 2.0 0.00 0.00 0.00 22 1018.1
20260903184906 100 224 0.0 2.0 0.00 0.00 0.00 21 1018.1
20260903184406 100 224 0.0 1.0 0.00 0.00 0.00 22 1018.1
20260903183905 100 224 0.0 1.0 0.00 0.00 0.00 22 1018.1
20260903183407 101 224 0.0 2.0 0.00 0.00 0.00 21 1018.1
20260903182905 101 224 0.0 1.0 0.00 0.00 0.00 21 1018.1
20260903182406 102 224 1.0 5.0 0.00 0.00 0.00 21 1018.1
20260903181905 102 224 0.0 2.0 0.00 0.00 0.00 20 1018.1
20260903181405 103 224 0.0 0.0 0.00 0.00 0.00 20 1018.2
20260903180905 103 224 0.0 3.0 0.00 0.00 0.00 20 1018.2
20260903175905 104 224 0.0 2.0 0.00 0.00 0.00 19 1018.1
20260903174905 104 224 0.0 1.0 0.00 0.00 0.00 19 1018.2
20260903174405 104 224 2.0 5.0 0.00 0.00 0.00 18 1018.1
20260903173905 104 224 3.0 5.0 0.00 0.00 0.00 18 1018.2
20260903173405 105 224 2.0 5.0 0.00 0.00 0.00 18 1018.2
20260903172906 105 224 1.0 3.0 0.00 0.00 0.00 18 1018.2
20260903172405 105 224 0.0 1.0 0.00 0.00 0.00 18 1018.3
20260903171906 105 224 2.0 6.0 0.00 0.00 0.00 18 1018.2
20260903171406 105 242 2.0 5.0 0.00 0.00 0.00 18 1018.3
20260903170906 105 242 1.0 6.0 0.00 0.00 0.00 18 1018.2
20260903170405 105 237 5.0 7.0 0.00 0.00 0.00 18 1018.3
20260903165905 105 221 1.0 3.0 0.00 0.00 0.00 18 1018.3
20260903165406 105 221 0.0 3.0 0.00 0.00 0.00 18 1018.4
20260903164906 105 221 1.0 3.0 0.00 0.00 0.00 18 1018.5
20260903163905 105 221 2.0 6.0 0.00 0.00 0.00 18 1018.6
20260903163405 105 221 2.0 5.0 0.00 0.00 0.00 18 1018.6
20260903162905 105 221 4.0 8.0 0.00 0.00 0.00 18 1018.7
20260903162405 105 215 3.0 5.0 0.00 0.00 0.00 18 1018.6
20260903161905 105 206 0.0 3.0 0.00 0.00 0.00 18 1018.6
20260903161406 105 206 0.0 5.0 0.00 0.00 0.00 18 1018.5
20260903160905 105 242 0.0 3.0 0.00 0.00 0.00 19 1018.5
20260903160405 104 304 0.0 5.0 0.00 0.00 0.00 18 1018.5
20260903155905 105 302 3.0 5.0 0.00 0.00 0.00 18 1018.7
20260903155405 105 219 0.0 3.0 0.00 0.00 0.00 18 1018.7
20260903154905 104 219 5.0 7.0 0.00 0.00 0.00 18 1018.7
20260903153905 104 286 1.0 5.0 0.00 0.00 0.00 18 1018.8
20260903153405 105 329 1.0 3.0 0.00 0.00 0.00 18 1018.7
20260903152905 106 161 0.0 1.0 0.00 0.00 0.00 18 1018.8
20260903152405 106 161 2.0 6.0 0.00 0.00 0.00 18 1018.9
20260903151905 105 125 0.0 1.0 0.00 0.00 0.00 18 1018.9
20260903151405 105 125 2.0 5.0 0.00 0.00 0.00 18 1019.0
20260903150906 105 171 2.0 7.0 0.00 0.00 0.00 18 1019.1
20260903150405 105 257 0.0 5.0 0.00 0.00 0.00 18 1019.2
20260903145905 105 253 1.0 5.0 0.00 0.00 0.00 18 1019.2
20260903145405 105 138 3.0 7.0 0.00 0.00 0.00 18 1019.2
20260903144905 105 169 1.0 6.0 0.00 0.00 0.00 19 1019.3
20260903144405 104 198 5.0 7.0 0.00 0.00 0.00 19 1019.3
20260903143405 103 201 5.0 8.0 0.00 0.00 0.00 19 1019.3
20260903142406 103 228 5.0 9.0 0.00 0.00 0.00 19 1019.7
20260903141905 103 204 4.0 7.0 0.00 0.00 0.00 19 1019.8
20260903141405 104 166 5.0 8.0 0.00 0.00 0.00 19 1019.8
20260903140905 104 230 2.0 8.0 0.00 0.00 0.00 19 1019.9
20260903140406 104 187 3.0 7.0 0.00 0.00 0.00 19 1019.9
20260903135905 104 259 3.0 6.0 0.00 0.00 0.00 19 1019.9
20260903134905 102 347 3.0 7.0 0.00 0.00 0.00 20 1019.9
20260903133905 103 215 5.0 8.0 0.00 0.00 0.00 20 1020.0
20260903133406 102 201 5.0 9.0 0.00 0.00 0.00 20 1020.0
20260903132905 102 224 5.0 8.0 0.00 0.00 0.00 20 1020.2
20260903132405 103 347 4.0 7.0 0.00 0.00 0.00 20 1020.2
20260903131905 103 217 4.0 6.0 0.00 0.00 0.00 20 1020.3
20260903131405 103 224 2.0 6.0 0.00 0.00 0.00 20 1020.3
20260903130905 103 110 0.0 2.0 0.00 0.00 0.00 20 1020.4
20260903125905 103 292 0.0 1.0 0.00 0.00 0.00 20 1020.4
20260903125405 101 292 0.0 1.0 0.00 0.00 0.00 21 1020.5
20260903124905 100 292 0.0 5.0 0.00 0.00 0.00 21 1020.6
20260903123904 100 286 2.0 6.0 0.00 0.00 0.00 21 1020.6
20260903122905 100 244 1.0 9.0 0.00 0.00 0.00 21 1020.6
20260903122405 101 174 7.0 9.0 0.00 0.00 0.00 21 1020.6
20260903121905 100 229 6.0 8.0 0.00 0.00 0.00 21 1020.7
20260903121405 100 194 2.0 6.0 0.00 0.00 0.00 21 1020.7
20260903120405 99 355 2.0 8.0 0.00 0.00 0.00 22 1020.7
20260903115405 99 298 3.0 9.0 0.00 0.00 0.00 22 1020.9
20260903114905 99 317 0.0 1.0 0.00 0.00 0.00 23 1020.9
20260903114405 99 288 3.0 7.0 0.00 0.00 0.00 23 1020.9
20260903113904 98 5 2.0 7.0 0.00 0.00 0.00 24 1020.9
20260903113405 98 313 3.0 7.0 0.00 0.00 0.00 24 1021.0
20260903112905 97 329 2.0 7.0 0.00 0.00 0.00 25 1021.0
20260903112405 96 332 0.0 7.0 0.00 0.00 0.00 26 1021.0
20260903111405 96 311 3.0 5.0 0.00 0.00 0.00 26 1021.0
20260903110904 95 316 0.0 7.0 0.00 0.00 0.00 28 1021.1
20260903110404 94 334 1.0 6.0 0.00 0.00 0.00 28 1021.1
20260903105905 94 10 3.0 6.0 0.00 0.00 0.00 29 1021.2
20260903105405 94 302 1.0 5.0 0.00 0.00 0.00 30 1021.2
20260903104905 93 329 2.0 6.0 0.00 0.00 0.00 31 1021.3
20260903104405 92 329 0.0 5.0 0.00 0.00 0.00 31 1021.2
20260903103905 92 233 1.0 6.0 0.00 0.00 0.00 32 1021.2
20260903103405 91 293 4.0 7.0 0.00 0.00 0.00 32 1021.2
20260903102904 91 312 5.0 8.0 0.00 0.00 0.00 33 1021.2
20260903102405 90 248 1.0 6.0 0.00 0.00 0.00 36 1021.2
20260903101905 89 277 2.0 7.0 0.00 0.00 0.00 37 1021.1
20260903101405 88 335 3.0 8.0 0.00 0.00 0.00 37 1021.2
20260903100905 87 271 4.0 7.0 0.00 0.00 0.00 38 1021.1
20260903100404 86 281 3.0 7.0 0.00 0.00 0.00 40 1021.0
20260903095905 86 298 3.0 8.0 0.00 0.00 0.00 41 1021.1
20260903094405 83 297 1.0 5.0 0.00 0.00 0.00 46 1021.0
20260903093904 82 182 2.0 6.0 0.00 0.00 0.00 46 1021.0
20260903093405 81 240 5.0 8.0 0.00 0.00 0.00 47 1021.0
20260903092905 81 249 5.0 9.0 0.00 0.00 0.00 48 1021.0
20260903092405 80 206 6.0 9.0 0.00 0.00 0.00 49 1021.1
20260903091905 80 256 6.0 9.0 0.00 0.00 0.00 48 1021.2
20260903091405 79 240 5.0 7.0 0.00 0.00 0.00 50 1021.2
20260903090404 77 240 5.0 8.0 0.00 0.00 0.00 52 1021.2
20260903085405 76 326 4.0 9.0 0.00 0.00 0.00 52 1021.3
20260903084905 76 350 2.0 7.0 0.00 0.00 0.00 54 1021.2
20260903084405 75 269 3.0 6.0 0.00 0.00 0.00 53 1021.2
20260903083905 75 294 3.0 6.0 0.00 0.00 0.00 54 1021.2
20260903083405 74 320 4.0 6.0 0.00 0.00 0.00 54 1021.3
20260903082904 74 311 3.0 6.0 0.00 0.00 0.00 56 1021.2
20260903082405 73 329 3.0 7.0 0.00 0.00 0.00 58 1021.3
20260903081905 72 320 1.0 6.0 0.00 0.00 0.00 60 1021.2
20260903081406 71 281 1.0 3.0 0.00 0.00 0.00 67 1021.3
20260903080905 71 281 2.0 7.0 0.00 0.00 0.00 63 1021.2
20260903080405 70 284 1.0 6.0 0.00 0.00 0.00 65 1021.2
20260903075904 70 289 4.0 8.0 0.00 0.00 0.00 66 1021.1
20260903075404 70 304 4.0 6.0 0.00 0.00 0.00 65 1021.1
20260903074904 70 253 5.0 8.0 0.00 0.00 0.00 65 1021.2
20260903074404 69 334 2.0 7.0 0.00 0.00 0.00 66 1021.2
20260903073904 69 271 5.0 7.0 0.00 0.00 0.00 66 1021.1
20260903073405 69 281 3.0 6.0 0.00 0.00 0.00 67 1021.1
20260903072405 69 169 0.0 1.0 0.00 0.00 0.00 72 1021.1
20260903071904 68 169 0.0 1.0 0.00 0.00 0.00 73 1021.0
20260903070905 66 169 0.0 1.0 0.00 0.00 0.00 83 1020.9
20260903065905 65 169 0.0 0.0 0.00 0.00 0.00 86 1021.0
20260903065405 64 169 0.0 0.0 0.00 0.00 0.00 86 1021.0
20260903064904 64 169 0.0 0.0 0.00 0.00 0.00 86 1020.9
20260903064405 64 169 0.0 0.0 0.00 0.00 0.00 86 1020.9
20260903063907 64 169 0.0 0.0 0.00 0.00 0.00 86 1020.9
20260903063404 64 169 0.0 0.0 0.00 0.00 0.00 86 1020.8
20260903062905 63 169 0.0 0.0 0.00 0.00 0.00 85 1020.8
20260903061905 63 169 0.0 0.0 0.00 0.00 0.00 85 1020.6
20260903061405 64 169 0.0 0.0 0.00 0.00 0.00 85 1020.6
20260903060905 64 169 0.0 0.0 0.00 0.00 0.00 85 1020.5
20260903060405 64 169 0.0 0.0 0.00 0.00 0.00 85 1020.4
20260903055904 64 169 0.0 0.0 0.00 0.00 0.00 85 1020.3
20260903055404 64 169 0.0 0.0 0.00 0.00 0.00 86 1020.3
20260903054905 64 169 0.0 0.0 0.00 0.00 0.00 86 1020.3